KUIPER-00155

Last updated on Mon Oct 20 2025 00:02:06 GMT+0000 (Coordinated Universal Time)

1 65774U 25217N 25292.26164894 .00014265 00000+0 41367-3 0 9997 2 65774 51.8667 327.8735 0005116 174.4386 185.6657 15.35774489 3661
UTC large
Height (km)
Speed (km/s)
/
Latitude / Longitude
Inclination (degrees)
Orbital Period (minutes)
Azimuth
Elevation
Range (km)
Doppler Factor

Next 0 passes for location: London (51.5072 / 0.1276)

Sorry there are no passes over London.